Starlink 32161

operational
NORAD ID: 60593 Int'l Des: 2024-150 Owner: SPXS Country: US Constellation: starlink
LEOCIRCULAR

About Starlink 32161

Description loading...

Live Position

Loading 3D Globe...

Upcoming Passes

Altitude History

Altitude vs Time

uPlot chart will show altitude changes over time

Two-Line Element Set

1 60593U 24150L 25260.08678389 .00001991 00000-0 79318-4 0 9991
2 60593 53.1618 33.2750 0000905 108.4076 251.7023 15.30207115 61382
Epoch: Sep 17, 2025 • Age: 22 hours

Current Status

Altitude 475.5 km
Velocity 7.63 km/s
Sub-Earth Point 18.76°N, 44.53°E
Launch Date Aug 20, 2024
Age 1 years
Type internet

Technical Details

Classification Payload
Mass 730.00 kg
Dry Mass 700.00 kg
Total Mass 730.00 kg
Length 0.30 m
Diameter 4.10 m
Span 29.00 m
Shape Box + pan
Manufacturer SPXS
Bus Type Starlink V2M
Phase Status In Orbit
Owner/State SPXS/US

Large Constellations

Loading constellations...